Location: Noordwijk
(52.2400°N, 4.4500°E)
Time: 21:58:50
(UTC+00:00)

AO-7 - Pass Details

Date: 16 December 2022
Orbit: 1440 x 1459 km, 101.9° (Epoch: 01 February)

Event Time Altitude Azimuth Distance (km) Brightness Sun altitude
Rises 06:57:39 0° 22° (NNE) 4,548 ? -6.9°
Reaches altitude 10° 07:00:50 10° 12° (NNE) 3,569 ? -6.5°
Maximum altitude 07:07:37 30° 317° (NW) 2,382 ? -5.6°
Drops below altitude 10° 07:14:25 10° 261° (W) 3,568 ? -4.7°
Sets 07:17:37 0° 251° (WSW) 4,546 ? -4.3°
